Location: *
(49.6619°S, 177.4603°W)
Time: 01:11:46
(UTC+00:00)

Cosmos 2366 rocket - Pass Details

Date: 31 January 2023
Orbit: 955 x 996 km, 82.9° (Epoch: 20 March)

Event Time Altitude Azimuth Distance (km) Brightness Sun altitude
Exits shadow 10:59:36 41° 20° (NNE) 1,416 4.3 -21.5°
Maximum altitude 11:01:52 66° 86° (E) 1,082 4.1 -21.6°
Drops below altitude 10° 11:08:13 10° 166° (SSE) 2,793 7.3 -21.9°
Sets 11:10:47 0° 168° (SSE) 3,752 8.2 -22.0°
